Miscellaneous Local Product
Issued by NWS North Platte, NE

Home | Current Version | Previous Version | Text Only | Print | Product List | Glossary On
Versions: 1 2 3 4 5 6 7 8 9 10 11 12 13 14 15 16 17 18 19 20 21 22 23 24 25 26 27 28 29 30 31 32 33 34 35 36 37 38 39 40 41 42 43 44 45 46 47 48 49 50
000
AXUS43 KLBF 181810
MISLBF


WESTERN AND NORTH CENTRAL NEBRASKA HOURLY WEATHER ROUNDUP
NATIONAL WEATHER SERVICE NORTH PLATTE NE
100 PM CDT FRI APR 18 2014

***STATIONS NOT REPORTING VARIABLES SUCH AS SKY/WEATHER OR
PRESSURE ARE PROVIDED BY THE NEBRASKA DEPARTMENT OF
ROADS...RAWS...AND APRS NETWORKS...AND ARE NOT UNDER
NATIONAL WEATHER SERVICE QUALITY CONTROL***

...OBSERVATIONS IN AND NEAR THE EASTERN PANHANDLE OF NEBRASKA...

CITY           SKY/WX    TMP DP  RH WIND       PRES   REMARKS
PINE RIDGE     MOSUNNY   71  42  35 S18       29.81F
CHADRON        PTSUNNY   76  36  23 SW18      29.80F
ALLIANCE       CLOUDY    70  39  32 S20       29.88F
SIDNEY         CLOUDY    69  35  28 S15       29.95F
WHITECLAY        N/A     72  43  34 S13         N/A
LISCO            N/A     74  34  22 E13         N/A
BIG SPRINGS      N/A     66  42  42 S15         N/A
LEWELLEN         N/A     74  36  24 S17         N/A
$$

...OBSERVATIONS IN SOUTHWEST NEBRASKA AND FAR NORTHEAST COLORADO...

CITY           SKY/WX    TMP DP  RH WIND       PRES   REMARKS
WRAY           FAIR      71  38  29 S17G24    29.96F
HOLYOKE        FAIR      73  39  29 S15       29.96F
IMPERIAL       MOSUNNY   68  38  33 S22G30    29.97F
OGALLALA       PTSUNNY   68  36  30 S14       29.96F
NORTH PLATTE   MOSUNNY   66  40  38 S22G33    29.99F
MCCOOK         SUNNY     66  41  40 S20G32    30.03F
LEXINGTON      MOSUNNY   62  44  52 S21G28    30.06F
PAXTON           N/A     64  43  45 S20         N/A
SUTHERLAND       N/A     65  36  34 S20         N/A
MEDICINE CREEK   N/A     61  45  56 SW8         N/A
GOTHENBURG       N/A     62  44  52 SE7G21      N/A
CALLAWAY         N/A     60  44  55 S23         N/A
$$

...OBSERVATIONS IN NORTH CENTRAL NEBRASKA...

CITY           SKY/WX    TMP DP  RH WIND       PRES   REMARKS
VALENTINE      MOSUNNY   71  35  26 S20G28    29.88F
THEDFORD       MOSUNNY   67  34  29 S26G32    29.95F
AINSWORTH      MOSUNNY   69  37  30 S30       29.91F
O`NEILL        SUNNY     65  36  33 S26G39    30.01F
ORD            MOSUNNY   64  40  41 S22G37    30.04F
BROKEN BOW     MOSUNNY   63  41  44 S23G30    30.03F
BROWNLEE         N/A     70  31  23 S28         N/A
SPRINGVIEW       N/A     69  40  35 S12G24      N/A
DUNNING          N/A     66  39  36 S20         N/A
BREWSTER         N/A     69  41  35 S24         N/A
ROSE             N/A     69  45  41 SE25        N/A
NEWPORT          N/A     65  40  38 S24         N/A
COMSTOCK         N/A     68  45  42 S23         N/A
CHAMBERS         N/A     67  43  41 S16G35      N/A
EWING            N/A     64  42  44 SW20G32     N/A
$$

...SOME WEATHER OBSERVATIONS FROM AROUND THE REGION...

CITY           SKY/WX    TMP DP  RH WIND       PRES   REMARKS
DENVER         PTSUNNY   72  25  17 SE9       29.97F
LARAMIE        CLOUDY    62  24  23 SW25G39   30.01F
CHEYENNE       CLOUDY    64  27  24 S16G25    29.98F
SCOTTSBLUFF    CLOUDY    74  38  27 S12G24    29.88F
RAPID CITY     PTSUNNY   74  39  28 S18       29.74F
PIERRE         PTSUNNY   64  40  41 SE18G25   29.83F
WINNER         FAIR      71  36  27 S32G41    29.86F
SIOUX FALLS    MOSUNNY   60  34  37 SE23G32   30.12F
OMAHA          SUNNY     60  33  36 SE13G23   30.23F
GRAND ISLAND   MOSUNNY   63  41  44 S24G31    30.11F
KANSAS CITY    SUNNY     61  39  44 S7        30.28F
WICHITA        MOSUNNY   65  44  46 SE13G20   30.23F
HAYS           SUNNY     66  45  45 S25G32    30.14F
LIBERAL        SUNNY     63  45  51 S22       30.16F
GOODLAND       MOSUNNY   64  38  38 S22G31    30.01F
$$



USA.gov is the U.S. government's official web portal to all federal, state and local government web resources and services.